Location: Newark
(45.8833°N, 13.5000°E)
Time: 04:24:29
(UTC+00:00)

X-37B - Pass Details

Date: 05 October 2020
Orbit: 382 x 392 km, 45.0° (Epoch: 15 October)

Event Time Altitude Azimuth Distance (km) Brightness Sun altitude
Rises 17:49:55 0° 240° (WSW) 2,261 5.4 -13.3°
Reaches altitude 10° 17:52:02 10° 233° (SW) 1,407 4.1 -13.7°
Maximum altitude 17:55:03 42° 161° (SSE) 565 1.2 -14.2°
Enters shadow 17:56:01 31° 116° (ESE) 701 1.3 -14.4°
